Location: Bluff Heights
(33.7692°N, 118.1592°W)
Time: 08:44:37
(UTC+00:00)

Tiros 1 - All Passes

Search period start: 24 July 2021 00:00
Search period end: 03 August 2021 00:00
Orbit: 630 x 663 km, 48.4° (Epoch: 23 July)

Date Brightness Start Highest point End Pass type
(mag) Time Alt. Az. Time Alt. Az. Time Alt. Az.
24 Jul - 03:24:26 10° SSW 03:28:46 35° SE 03:33:04 10° ENE visible
24 Jul - 05:06:27 10° WSW 05:10:55 40° NNW 05:15:21 10° NE visible
24 Jul - 06:51:19 10° NW 06:54:06 15° NNW 06:56:52 10° NNE visible
24 Jul - 08:35:17 10° NNW 08:37:51 14° N 08:40:24 10° NE visible
24 Jul - 10:16:52 10° NW 10:21:08 34° NNE 10:25:21 10° E visible
24 Jul - 11:58:59 10° WNW 12:03:22 42° SW 12:07:41 10° SSE visible
25 Jul - 02:10:55 10° SSE 02:12:56 13° SE 02:14:57 10° ESE daylight
25 Jul - 03:49:49 10° SW 03:54:35 87° SE 03:59:19 10° NE visible
25 Jul - 05:33:27 10° WNW 05:37:13 23° NNW 05:40:58 10° NNE visible
25 Jul - 07:18:34 10° NNW 07:20:47 13° N 07:23:01 10° NNE visible
25 Jul - 09:01:02 10° NNW 09:04:27 20° NNE 09:07:50 10° ENE visible
25 Jul - 10:42:36 10° NW 10:47:15 72° NE 10:51:51 10° ESE visible
25 Jul - 12:26:04 10° W 12:28:59 17° SW 12:31:54 10° S visible
26 Jul - 02:34:18 10° SSW 02:38:32 32° SE 02:42:45 10° ENE daylight
26 Jul - 04:16:05 10° WSW 04:20:37 43° NNW 04:25:08 10° NE visible
26 Jul - 06:00:52 10° NW 06:03:45 16° NNW 06:06:38 10° NNE visible
26 Jul - 07:45:00 10° NNW 07:47:30 14° N 07:50:00 10° NE visible
26 Jul - 09:26:39 10° NW 09:30:50 32° NNE 09:35:00 10° E visible
26 Jul - 11:08:41 10° WNW 11:13:07 47° SW 11:17:32 10° SSE visible
27 Jul - 01:21:19 10° SE 01:22:43 11° SE 01:24:07 10° ESE daylight
27 Jul - 02:59:33 10° SW 03:04:19 79° SE 03:09:04 10° NE daylight
27 Jul - 04:43:02 10° WNW 04:46:54 24° NNW 04:50:46 10° NNE visible
27 Jul - 06:28:10 10° NNW 06:30:27 13° N 06:32:43 10° NNE visible
27 Jul - 08:10:47 10° NNW 08:14:08 19° NNE 08:17:26 10° ENE visible
27 Jul - 09:52:21 10° NW 09:57:00 66° NE 10:01:35 10° ESE visible
27 Jul - 11:35:35 10° W 11:38:47 18° SW 11:41:57 10° S visible
28 Jul - 01:44:10 10° SSW 01:48:18 29° SE 01:52:24 10° ENE daylight
28 Jul - 03:25:44 10° WSW 03:30:20 47° NNW 03:34:55 10° NE visible
28 Jul - 05:10:24 10° NW 05:13:25 16° NNW 05:16:25 10° NNE visible
28 Jul - 06:54:42 10° NNW 06:57:10 14° N 06:59:37 10° NE visible
28 Jul - 08:36:25 10° NW 08:40:33 30° NNE 08:44:39 10° E visible
28 Jul - 10:18:22 10° WNW 10:22:54 52° SW 10:27:21 10° SSE night (unlit)
29 Jul - 02:09:18 10° SW 02:14:03 72° SE 02:18:48 10° NE daylight
29 Jul - 03:52:37 10° W 03:56:36 26° NNW 04:00:33 10° NNE visible
29 Jul - 05:37:45 10° NW 05:40:06 13° N 05:42:26 10° NNE visible
29 Jul - 07:20:33 10° NNW 07:23:48 18° NNE 07:27:02 10° ENE visible
29 Jul - 09:02:06 10° NW 09:06:44 60° NE 09:11:18 10° ESE visible
29 Jul - 10:45:08 10° W 10:48:34 21° SW 10:51:59 10° S night (unlit)
30 Jul - 00:54:04 10° S 00:58:04 26° SE 01:02:02 10° ENE daylight
30 Jul - 02:35:24 10° WSW 02:40:03 51° NW 02:44:41 10° NE daylight
30 Jul - 04:19:57 10° WNW 04:23:05 17° NNW 04:26:12 10° NNE visible
30 Jul - 06:04:23 10° NNW 06:06:49 14° N 06:09:15 10° NE visible
30 Jul - 07:46:11 10° NW 07:50:15 28° NNE 07:54:17 10° E visible
30 Jul - 09:28:05 10° WNW 09:32:40 58° SW 09:37:11 10° SE night (unlit)
31 Jul - 01:19:03 10° SW 01:23:48 66° SE 01:28:31 10° ENE daylight
31 Jul - 03:02:12 10° W 03:06:17 27° NNW 03:10:21 10° NNE daylight
31 Jul - 04:47:20 10° NW 04:49:45 14° N 04:52:09 10° NNE visible
31 Jul - 06:30:18 10° NNW 06:33:29 18° NNE 06:36:38 10° ENE visible
31 Jul - 08:11:51 10° NW 08:16:28 55° NE 08:21:00 10° ESE visible
31 Jul - 09:54:43 10° W 09:58:21 23° SW 10:01:58 10° S night (unlit)
01 Aug - 00:03:59 10° S 00:07:49 24° SE 00:11:39 10° ENE daylight
01 Aug - 01:45:04 10° WSW 01:49:46 55° NW 01:54:27 10° NE daylight
01 Aug - 03:29:30 10° WNW 03:32:45 18° NNW 03:35:59 10° NNE visible
01 Aug - 05:14:04 10° NNW 05:16:29 14° N 05:18:52 10° NE visible
01 Aug - 06:55:56 10° NNW 06:59:57 27° NNE 07:03:55 10° E visible
01 Aug - 08:37:47 10° WNW 08:42:25 64° SW 08:46:59 10° SE night (unlit)
02 Aug - 00:28:50 10° SW 00:33:32 59° SE 00:38:15 10° ENE daylight
02 Aug - 02:11:48 10° W 02:15:58 29° NNW 02:20:08 10° NE daylight
02 Aug - 03:56:54 10° NW 03:59:24 14° N 04:01:54 10° NNE visible
02 Aug - 05:40:02 10° NNW 05:43:09 17° NNE 05:46:14 10° NE visible
02 Aug - 07:21:37 10° NW 07:26:11 51° NNE 07:30:43 10° ESE visible
02 Aug - 09:04:19 10° WNW 09:08:08 25° SW 09:11:56 10° S night (unlit)
02 Aug - 23:13:56 10° S 23:17:35 22° SE 23:21:14 10° E daylight
